Regional Weather Roundup
Issued by NWS Sterling, VA

Home | Current Version | Previous Version | Text Only | Print | Product List | Glossary Off
Versions: 1 2 3 4 5 6 7 8 9 10 11 12 13 14 15 16 17 18 19 20 21 22 23 24 25 26 27 28 29 30 31 32 33 34 35 36 37 38 39 40 41 42 43 44 45 46 47 48 49 50

000
ASUS41 KLWX 210810
RWRLWX

REGIONAL WEATHER ROUNDUP
NATIONAL WEATHER SERVICE BALTIMORE MD/WASHINGTON DC
400 AM EDT TUE APR 21 2015

Note: "FAIR" indicates few or no clouds below 12,000 feet
with no significant weather and/or obstructions to visibility.
 TC=TEMPERATURE CELSIUS

 * =Non NWS site. Station does not report precipitation (e.g. rain,
    snow, etc.), thunder, or fog.

DCZ001-MDZ009-015-VAZ040>042-051-053>054-210900-
WASHINGTON METRO

CITY           SKY/WX    TMP DP  RH WIND       PRES   REMARKS
WASHINGTON NAT MOCLDY    63  55  75 NW13G18   29.65R
DULLES         CLOUDY    58  46  64 NW16G25   29.66R
ANDREWS AFB    MOCLDY    59  58  99 NW8       29.63R
FT BELVOIR     CLOUDY    58  57  96 NW8       29.64R
QUANTICO       MOCLDY    61  57  87 NW3       29.65R
COLLEGE PARK*  CLOUDY    59  59 100 CALM      29.64R
LEESBURG*      CLOUDY    59  46  63 NW18G25   29.67R
MANASSAS*      CLOUDY    61  55  82 NW17G26   29.66R
GAITHERSBURG*  MOCLDY    57  52  82 W5        29.68R

$$

MDZ006>007-011-014-210900-
BALTIMORE METRO

CITY           SKY/WX    TMP DP  RH WIND       PRES   REMARKS
BWI AIRPORT    MOCLDY    58  57  97 W5        29.62R
MD SCIENCE CTR   N/A     61  56  83 MISG      29.63R
MARTIN STATE   MOCLDY    59  59 100 SW3       29.63R
ANNAPOLIS      MOCLDY    59  56  89 CALM      29.62R
FORT MEADE*    MOCLDY    55  55 100 CALM      29.66R

$$

MDZ012-015-019>023-210900-
MARYLAND EASTERN SHORE

CITY           SKY/WX    TMP DP  RH WIND       PRES   REMARKS
OCEAN CITY     MOCLDY    61  58  90 S8        29.60S
SALISBURY      MOCLDY    67  60  78 SW12      29.60S
BAY BRIDGE AP*   N/A    N/A N/A N/A CALM      29.63R
CAMBRIDGE*     CLOUDY    63  54  72 NW9       29.63R
EASTON*        RAIN      60  60 100 CALM      29.67R

$$

MDZ017>025-210900-
SOUTHERN MARYLAND

CITY           SKY/WX    TMP DP  RH WIND       PRES   REMARKS
PATUXENT RIVER CLOUDY    63  54  72 NW12      29.62R
ST INIGOES     CLOUDY    66  59  78 W10       29.62R
LEONARDTOWN*   CLOUDY    63  54  72 CALM      29.64R

$$

MDZ003>005-210900-
NORTH CENTRAL MARYLAND

CITY           SKY/WX    TMP DP  RH WIND       PRES   REMARKS
FREDERICK*     CLOUDY    59  45  58 NW6G16    29.69R
HAGERSTOWN APT CLOUDY    56  43  61 W12       29.66R
WESTMINSTER*   CLOUDY    57  54  88 W10G16    29.64R

$$

MDZ501>502-210900-
WESTERN MARYLAND

CITY           SKY/WX    TMP DP  RH WIND       PRES   REMARKS
OAKLAND*       CLOUDY    39 N/A N/A W6G17     29.71R
CUMBERLAND*    CLOUDY    52  39  62 N6        29.76R

$$

VAZ025>031-210900-
SHENANDOAH VALLEY

CITY           SKY/WX    TMP DP  RH WIND       PRES   REMARKS
WINCHESTER*    CLOUDY    57  37  47 W13G26    29.70R
FRONT ROYAL*   NOT AVBL
LURAY*         NOT AVBL
NEW MARKET*    CLOUDY    55  38  53 W7G18     29.73
STAUNTON*      CLOUDY    55  41  59 CALM      29.75R
WAYNESBORO*    PTSUNNY   52  41  66 W5        29.73R

$$

WVZ021-048>050-054>055-210900-
EASTERN WEST VIRGINIA PANHANDLE

CITY           SKY/WX    TMP DP  RH WIND       PRES   REMARKS
MARTINSBURG    LGT RAIN  56  44  64 NW15G22   29.69R
PETERSBURG*    NOT AVBL

$$

VAZ036>039-050-210900-
CENTRAL FOOTHILLS

CITY           SKY/WX    TMP DP  RH WIND       PRES   REMARKS
CHARLOTTESVILL PTCLDY    58  41  53 NW7       29.69R
CULPEPER*      CLOUDY    63  54  72 CALM      29.66R
ORANGE*        MOCLDY    61  52  72 SW8       29.69R
GORDONSVILLE*  FAIR      60  44  55 W12G18    29.68R
WARRENTON*     LGT RAIN  59  58  94 W3        29.66R

$$

VAZ055>057-210900-
NORTH AND CENTRAL PIEDMONT

CITY           SKY/WX    TMP DP  RH WIND       PRES   REMARKS
FREDERICKSBRG* MOCLDY    63  58  84 W5        29.64R
STAFFORD*      CLOUDY    58  32  37 CALM      29.69R

$$

NCZ024-NYZ072-PAZ021-071-VAZ022-071-210900-
OTHER REGIONAL OBSERVATIONS

CITY           SKY/WX    TMP DP  RH WIND       PRES   REMARKS
NEW YORK CITY  LGT RAIN  53  53 100 VRB3      29.60S
PHILADELPHIA   LGT RAIN  60  57  89 CALM      29.59S FOG
PITTSBURGH     CLOUDY    47  34  60 W7        29.70F
ROANOKE        PTCLDY    53  39  59 W14       29.78R
RICHMOND       PTCLDY    66  57  72 SW10      29.65R
RALEIGH        MOCLDY    61  60  97 W5        29.75R

$$

ANZ530>537-210900-
MARINE OBSERVATIONS

STATION/POSITION TIME  TEMP    WIND        PRES
                       AIR SEA DIR/SP/G
                 (UTC) (F)     (DEG/KT/KT) (MB)
THOMAS PT LIGHT  0800   59 52  230/  4/  4 1004.1R
BALT KEY BRIDGE  0700   60     190/  2/  3 1002.1R
COVE POINT       0700   67     240/ 12/ 15 1001.8R
LEWISETTA        0700   68 57              1002.2R
SOLOMONS ISLAND  0700      56                N/A
PINEY POINT      0700          260/ 10/ 15   N/A

$$




USA.gov is the U.S. government's official web portal to all federal, state and local government web resources and services.